Terminal Aerodrome Forecast
Issued by NWS Charleston, WV

Current Version | Previous Version | Graphics & Text | Print | Product List | Glossary On
Versions: 1 2 3 4 5 6 7 8 9 10 11 12 13 14 15 16 17 18 19 20 21 22 23 24 25 26 27 28 29 30 31
000
FTUS41 KRLX 271100
TAFBKW
TAF
KBKW 271135Z 2712/2812 VRB03KT P6SM SKC
     FM271500 34011G19KT P6SM FEW080
     FM271700 33013G22KT P6SM BKN060
     FM280300 33006KT P6SM BKN030
     FM280800 33005KT P6SM SCT025=

USA.gov is the U.S. government's official web portal to all federal, state and local government web resources and services.